Regional Weather Roundup
Issued by NWS Northern Indiana

Home | Current Version | Previous Version | Text Only | Print | Product List | Glossary Off
Versions: 1 2 3 4 5 6 7 8 9 10 11 12 13 14 15 16 17 18 19 20 21 22 23 24 25 26 27 28 29 30 31 32 33 34 35 36 37 38 39 40 41 42 43 44 45 46 47 48 49 50

895
ASUS43 KIWX 290210
RWRIWX

KIWX WEATHER ROUNDUP
NATIONAL WEATHER SERVICE NORTHERN INDIANA
1000 PM EDT THU APR 28 2016

NOTE: "FAIR" INDICATES FEW OR NO CLOUDS BELOW 12,000 FEET WITH NO
SIGNIFICANT WEATHER AND/OR OBSTRUCTIONS TO VISIBILITY.

* THESE STATIONS ARE NOT UNDER NWS QUALITY CONTROL. THEY ALSO MAY NOT
  REPORT WEATHER SUCH AS PRECIPITATION OR FOG.

INZ001>027-290300-
NORTHERN INDIANA

CITY           SKY/WX    TMP DP  RH WIND       PRES   REMARKS
GARY*          CLOUDY    46  46 100 N8        29.99R
VALPARAISO     CLOUDY    52  49  89 NW5       29.97R
MICHIGAN CITY* CLOUDY    52  46  82 CALM      29.97R
LAPORTE*       CLOUDY    53  51  92 E6        29.96S
KNOX*          CLOUDY    50  45  81 E3        29.95R
SOUTH BEND     CLOUDY    51  45  79 E6        29.97R
GOSHEN         CLOUDY    49  42  77 E12       29.97R
MONTICELLO*    CLOUDY    55  50  81 NE3       29.95R
LOGANSPORT*    LGT RAIN  54  50  87 NE3       29.96R
ROCHESTER*     MOCLDY    54  50  87 E6        29.95S
WARSAW*        CLOUDY    50  45  81 E6        29.97R
ANGOLA*        CLOUDY    45  34  65 E7        29.99R
FORT WAYNE     CLOUDY    49  43  80 E10       29.99R
HUNTINGTON*    CLOUDY   N/A N/A N/A E6        29.97R
MARION*        CLOUDY    51  49  90 E10       29.96R

$$
INZ028>050-290300-
CENTRAL INDIANA

CITY           SKY/WX    TMP DP  RH WIND       PRES   REMARKS
LAFAYETTE      CLOUDY    57  53  86 NE7       29.94R
KOKOMO*        CLOUDY    52  46  82 E6        29.95R
MUNCIE*        CLOUDY    53  49  86 E9        29.95R FOG
INDIANAPOLIS   CLOUDY    60  54  80 NE6       29.93R

$$
MIZ043>046-050>051-056>058-064>065-071>073-077>080-290300-
SOUTHWEST LOWER MICHIGAN

CITY           SKY/WX    TMP DP  RH WIND       PRES   REMARKS
BATTLE CREEK   CLOUDY    46  33  60 E7        30.01R
BENTON HARBOR  CLOUDY    49  42  77 E10       29.97R
COLDWATER*     CLOUDY    46  37  69 E7        30.00R
HILLSDALE*     CLOUDY    45  36  69 NE3       30.00R
HOLLAND        CLOUDY    44  36  73 E7        30.02R
GRAND RAPIDS   CLOUDY    44  37  76 E9        30.04R
KALAMAZOO      CLOUDY    47  36  65 E6        30.00R
STURGIS*       CLOUDY    47  38  71 E6        29.99R
THREE RIVERS*  CLOUDY    47  40  78 E8        30.00R

$$
OHZ001>008-015>018-024>025-290300-
NORTHWEST OHIO

CITY           SKY/WX    TMP DP  RH WIND       PRES   REMARKS
WAUSEON*         N/A     46  28  49 NE9       29.99S
DEFIANCE       CLOUDY    48  37  65 NE8       30.00R
FINDLAY        LGT RAIN  47  40  76 NW6       29.98R
TOLEDO EXPRESS CLOUDY    47  35  63 NE12      29.99R
TOLEDO METCALF CLOUDY    47  37  68 E9        29.99R
LIMA           CLOUDY    47  45  93 N6        29.96R

$$
AND FOR LAKE MICHIGAN COASTAL AND OPEN LAKE BUOY OBSERVATIONS

STATION/POSITION TEMP    WIND        PRES    VSBY  WAVE
                 AIR SEA DIR/SP/G                  HT/PER
                 (F)     (DEG/KT/KT) (MB)    (MI)  (FT/S)
CALUMET HARBOR    44                 1014.3R
MICHIGAN CITY     47      30/  4/  4   N/A
BURNS HARBOR      46     360/  4/  6 1014.9R
SAINT JOSEPH      50      30/  3/  7 1015.9R
SOUTH LAKE BUOY   40 40   70/ 14/ 16 1015.2          2/ 4
4 MI NW BRIDGMAN  51 47  100/  8/ 10   N/A           1/ 6

$$
&&




USA.gov is the U.S. government's official web portal to all federal, state and local government web resources and services.